Hourly Weather Holmistyy

Today, 12 April, Monday

Time Temperature Precipitation Wind Pressure Humidity
00:00 +8°C° 0 mm 4 mps 759 mmHg 89%
01:00 +8°C° 0 mm 4 mps 759 mmHg 88%
02:00 +8°C° 0 mm 4 mps 759 mmHg 87%
03:00 +9°C° 0 mm 3 mps 759 mmHg 87%
04:00 +9°C° 0 mm 3 mps 759 mmHg 85%
05:00 +8°C° 0 mm 3 mps 759 mmHg 83%
06:00 +8°C° 0 mm 3 mps 759 mmHg 81%
07:00 +10°C° 0 mm 3 mps 759 mmHg 73%
08:00 +12°C° 0 mm 4 mps 760 mmHg 66%
09:00 +14°C° 0 mm 4 mps 760 mmHg 59%
10:00 +15°C° 0 mm 5 mps 760 mmHg 55%
11:00 +17°C° 0 mm 6 mps 760 mmHg 51%
12:00 +19°C° 0 mm 6 mps 760 mmHg 47%
13:00 +19°C° 0 mm 6 mps 760 mmHg 47%
14:00 +20°C° 0 mm 6 mps 760 mmHg 47%
15:00 +20°C° 0 mm 6 mps 760 mmHg 47%
16:00 +19°C° 0 mm 4 mps 760 mmHg 54%
17:00 +18°C° 0 mm 3 mps 761 mmHg 61%
18:00 +17°C° 0 mm 2 mps 761 mmHg 68%
19:00 +16°C° 0 mm 2 mps 761 mmHg 71%
20:00 +15°C° 0 mm 2 mps 762 mmHg 75%
21:00 +14°C° 0 mm 1 mps 762 mmHg 79%
22:00 +13°C° 0 mm 2 mps 762 mmHg 79%
23:00 +13°C° 0 mm 2 mps 762 mmHg 78%

Tomorrow, 13 April, Tuesday

Time Temperature Precipitation Wind Pressure Humidity
00:00 +12°C° 0 mm 3 mps 762 mmHg 78%
01:00 +12°C° 0 mm 3 mps 762 mmHg 78%
02:00 +11°C° 0 mm 3 mps 762 mmHg 77%
03:00 +10°C° 0 mm 3 mps 762 mmHg 77%
04:00 +10°C° 0 mm 3 mps 762 mmHg 77%
05:00 +10°C° 0 mm 3 mps 762 mmHg 77%
06:00 +10°C° 0 mm 3 mps 762 mmHg 78%
07:00 +11°C° 0 mm 4 mps 762 mmHg 74%
08:00 +12°C° 0 mm 4 mps 762 mmHg 70%
09:00 +13°C° 0 mm 5 mps 762 mmHg 66%
10:00 +15°C° 0 mm 5 mps 762 mmHg 64%
11:00 +16°C° 0 mm 6 mps 762 mmHg 62%
12:00 +17°C° 0 mm 6 mps 762 mmHg 59%
13:00 +19°C° 0 mm 6 mps 762 mmHg 57%
14:00 +20°C° 0 mm 5 mps 762 mmHg 55%
15:00 +20°C° 0 mm 5 mps 761 mmHg 53%
16:00 +19°C° 0 mm 4 mps 761 mmHg 58%
17:00 +18°C° 0 mm 3 mps 761 mmHg 63%
18:00 +17°C° 0 mm 3 mps 761 mmHg 67%
19:00 +16°C° 0 mm 3 mps 761 mmHg 70%
20:00 +14°C° 0 mm 3 mps 761 mmHg 73%
21:00 +13°C° 0 mm 3 mps 761 mmHg 76%
22:00 +13°C° 0 mm 3 mps 761 mmHg 73%
23:00 +12°C° 0 mm 3 mps 760 mmHg 70%

Day after tomorrow, 14 April, Wednesday

Time Temperature Precipitation Wind Pressure Humidity
00:00 +12°C° 0 mm 3 mps 760 mmHg 67%
01:00 +11°C° 0 mm 3 mps 760 mmHg 67%
02:00 +11°C° 0 mm 3 mps 760 mmHg 67%
03:00 +11°C° 0 mm 3 mps 760 mmHg 67%
04:00 +10°C° 0 mm 3 mps 760 mmHg 66%
05:00 +10°C° 0 mm 3 mps 760 mmHg 65%
06:00 +9°C° 0 mm 3 mps 760 mmHg 64%
07:00 +11°C° 0 mm 3 mps 760 mmHg 58%
08:00 +13°C° 0 mm 3 mps 759 mmHg 53%
09:00 +14°C° 0 mm 4 mps 759 mmHg 47%
10:00 +15°C° 0 mm 4 mps 759 mmHg 44%
11:00 +18°C° 0 mm 4 mps 759 mmHg 41%
12:00 +19°C° 0 mm 4 mps 759 mmHg 39%
13:00 +19°C° 0 mm 4 mps 758 mmHg 38%
14:00 +20°C° 0 mm 4 mps 758 mmHg 37%
15:00 +21°C° 0 mm 4 mps 758 mmHg 36%
16:00 +20°C° 0 mm 3 mps 757 mmHg 42%
17:00 +19°C° 0 mm 3 mps 757 mmHg 48%
18:00 +18°C° 0 mm 2 mps 757 mmHg 54%
19:00 +17°C° 0 mm 2 mps 757 mmHg 55%
20:00 +16°C° 0 mm 2 mps 757 mmHg 57%
21:00 +15°C° 0 mm 2 mps 757 mmHg 59%
22:00 +14°C° 0 mm 2 mps 757 mmHg 60%
23:00 +14°C° 0 mm 2 mps 757 mmHg 61%

15 April, Thursday

Time Temperature Precipitation Wind Pressure Humidity
00:00 +13°C° 0 mm 2 mps 756 mmHg 62%
01:00 +13°C° 0 mm 2 mps 756 mmHg 64%
02:00 +12°C° 0 mm 2 mps 756 mmHg 66%
03:00 +12°C° 0 mm 2 mps 756 mmHg 67%
04:00 +12°C° 0 mm 1 mps 756 mmHg 68%
05:00 +11°C° 0 mm 1 mps 756 mmHg 69%
06:00 +11°C° 0 mm 1 mps 756 mmHg 69%
07:00 +13°C° 0 mm 1 mps 756 mmHg 64%
08:00 +14°C° 0 mm 1 mps 756 mmHg 59%
09:00 +16°C° 0 mm 1 mps 756 mmHg 54%
10:00 +18°C° 0 mm 1 mps 756 mmHg 51%
11:00 +19°C° 0 mm 1 mps 756 mmHg 47%
12:00 +21°C° 0 mm 1 mps 756 mmHg 44%
13:00 +20°C° 0 mm 2 mps 756 mmHg 43%
14:00 +20°C° 0 mm 2 mps 756 mmHg 42%
15:00 +21°C° 0 mm 2 mps 756 mmHg 41%
16:00 +20°C° 0 mm 2 mps 756 mmHg 46%
17:00 +19°C° 0 mm 2 mps 756 mmHg 52%
18:00 +18°C° 0 mm 2 mps 756 mmHg 57%
19:00 +17°C° 0 mm 2 mps 756 mmHg 59%
20:00 +18°C° 0 mm 1 mps 756 mmHg 60%
21:00 +16°C° 0 mm 1 mps 756 mmHg 62%
22:00 +15°C° 0.1 mm 2 mps 756 mmHg 68%
23:00 +14°C° 0.1 mm 2 mps 756 mmHg 73%

16 April, Friday

Time Temperature Precipitation Wind Pressure Humidity
00:00 +12°C° 0.1 mm 3 mps 756 mmHg 79%
01:00 +13°C° 0 mm 2 mps 756 mmHg 81%
02:00 +12°C° 0 mm 2 mps 756 mmHg 83%
03:00 +12°C° 0 mm 2 mps 756 mmHg 85%
04:00 +10°C° 0 mm 2 mps 757 mmHg 86%
05:00 +10°C° 0 mm 2 mps 757 mmHg 86%
06:00 +9°C° 0 mm 2 mps 757 mmHg 87%
07:00 +10°C° 0 mm 3 mps 757 mmHg 84%
08:00 +11°C° 0 mm 4 mps 757 mmHg 80%
09:00 +12°C° 0 mm 5 mps 758 mmHg 77%
10:00 +13°C° 0 mm 5 mps 758 mmHg 70%
11:00 +14°C° 0 mm 5 mps 758 mmHg 64%
12:00 +15°C° 0 mm 5 mps 758 mmHg 57%
13:00 +15°C° 0 mm 5 mps 758 mmHg 54%
14:00 +16°C° 0 mm 5 mps 758 mmHg 51%
15:00 +17°C° 0 mm 6 mps 758 mmHg 48%
16:00 +16°C° 0 mm 5 mps 758 mmHg 52%
17:00 +15°C° 0 mm 5 mps 758 mmHg 56%
18:00 +14°C° 0 mm 5 mps 758 mmHg 59%
19:00 +13°C° 0 mm 4 mps 758 mmHg 62%
20:00 +12°C° 0 mm 3 mps 758 mmHg 66%
21:00 +12°C° 0 mm 2 mps 758 mmHg 69%
22:00 +12°C° 0.5 mm 2 mps 758 mmHg 74%
23:00 +10°C° 0.5 mm 2 mps 758 mmHg 80%

17 April, Saturday

Time Temperature Precipitation Wind Pressure Humidity
00:00 +10°C° 0.5 mm 2 mps 758 mmHg 86%
01:00 +10°C° 1 mm 2 mps 759 mmHg 85%
02:00 +9°C° 1 mm 2 mps 759 mmHg 85%
03:00 +9°C° 1 mm 2 mps 759 mmHg 85%
04:00 +9°C° 0 mm 2 mps 759 mmHg 84%
05:00 +8°C° 0 mm 2 mps 759 mmHg 84%
06:00 +8°C° 0 mm 2 mps 760 mmHg 84%
07:00 +9°C° 0 mm 2 mps 760 mmHg 76%
08:00 +10°C° 0 mm 3 mps 760 mmHg 68%
09:00 +12°C° 0 mm 3 mps 760 mmHg 61%
10:00 +13°C° 0 mm 3 mps 760 mmHg 56%
11:00 +14°C° 0 mm 3 mps 760 mmHg 51%
12:00 +16°C° 0 mm 3 mps 760 mmHg 46%
13:00 +16°C° 0 mm 3 mps 760 mmHg 45%
14:00 +16°C° 0 mm 3 mps 761 mmHg 45%
15:00 +16°C° 0 mm 3 mps 761 mmHg 44%
16:00 +14°C° 0 mm 3 mps 761 mmHg 47%
17:00 +14°C° 0 mm 3 mps 761 mmHg 50%
18:00 +14°C° 0 mm 3 mps 761 mmHg 53%
19:00 +12°C° 0 mm 3 mps 761 mmHg 56%
20:00 +11°C° 0 mm 3 mps 761 mmHg 59%
21:00 +9°C° 0 mm 3 mps 762 mmHg 63%
22:00 +9°C° 0 mm 3 mps 762 mmHg 65%
23:00 +8°C° 0 mm 3 mps 762 mmHg 66%
Show more